Location: Koussan�
(15.2012°N, 12.5548°W)
Time: 01:49:19
(UTC+00:00)

Helios 1A Rocket - Visible Passes

Search period start: 28 February 2021 00:00
Search period end: 10 March 2021 00:00
Orbit: 562 x 587 km, 98.3° (Epoch: 27 February)

Date Brightness Start Highest point End Pass type
(mag) Time Alt. Az. Time Alt. Az. Time Alt. Az.
28 Feb 3.8 20:33:27 10° S 20:37:24 48° W 20:41:20 10° NNW visible
01 Mar 4.0 20:36:41 10° S 20:40:34 43° W 20:44:27 10° NNW visible
02 Mar 4.2 20:39:55 10° S 20:43:44 39° W 20:47:32 10° NNW visible
03 Mar 4.4 20:43:09 10° SSW 20:46:54 35° W 20:50:38 10° NNW visible
04 Mar 4.6 20:46:25 10° SSW 20:50:04 32° W 20:53:43 10° NW visible
05 Mar 4.8 20:49:40 10° SSW 20:53:14 29° W 20:56:46 10° NW visible
06 Mar 4.8 19:20:06 10° E 19:21:35 12° ENE 19:23:03 10° NE visible
06 Mar 4.9 20:52:57 10° SSW 20:56:24 27° W 20:59:50 10° NW visible
07 Mar 4.7 19:22:52 10° ESE 19:24:43 13° ENE 19:26:35 10° NE visible
07 Mar 5.1 20:56:15 10° SSW 20:59:34 24° W 21:02:52 10° NW visible
08 Mar 4.6 19:25:42 10° ESE 19:27:52 14° ENE 19:30:01 10° NE visible
08 Mar 5.2 20:59:33 10° SSW 21:02:44 22° W 21:05:54 10° NW visible
09 Mar 4.5 19:28:36 10° ESE 19:31:00 16° ENE 19:33:25 10° NE visible
09 Mar 5.4 21:02:52 10° SSW 21:05:53 20° W 21:08:54 10° NW visible
